User: anonymous   Login
Location: Sternwarte_Laufen
(47.9344°N, 12.9346°E)
Time: 07:30:51
(UTC+02:00)
Language:

Courier 1B - Orbit

View from above orbital plane
View from above orbital plane
View from above satellite
View from above satellite

Ground track
Ground track

The orbit is defined by the following mean orbital elements,

1 00058U          26158.77085869 +.00000000 +00000-0 +19745-4 0 00008
2 00058  28.3248 187.5128 0164929 129.7961 231.7230 13.46430093    01
Epoch (UTC): 07 June 2026 18:30:02
Eccentricity: 0.0164929
inclination: 28.3248°
perigee height: 962 km
apogee height: 1209 km
right ascension of ascending node: 187.5128°
argument of perigee: 129.7961°
revolutions per day: 13.46430093
mean anomaly at epoch: 231.7230°

The dashed part of the orbit path shows where the satellite is in the earth's shadow,  

DLR